Webster City
Saturday 12:15 AM
Temperature70° (70°/70°)
Dew Point68°
Relative Humidity94
%
Visibility8
mi
Pressure1017.6
mb
Wind Direction
Wind SpeedCalm
Precipitation Today0.00"

Last 30 Observations

Time PresWx Temp DP Feels RH% Vsby Pressure Ceiling Direction Speed 1h Precip
11:55 PM 70° 68° 94
%
9
mi
1017.6
mb
Calm 0.00"
11:35 PM 70° 68° 94
%
10
mi
1017.6
mb
Calm 0.00"
11:15 PM 72° 70° 73°94
%
10
mi
1017.6
mb
Calm 0.00"
10:55 PM 72° 70° 73°94
%
10
mi
1017.6
mb
E
100°
3
mph
0.00"
10:35 PM 72° 70° 73°94
%
10
mi
1018.0
mb
Calm 0.00"
10:15 PM 72° 70° 73°94
%
10
mi
1018.0
mb
Calm 0.00"
9:55 PM 73° 70° 75°89
%
10
mi
1017.6
mb
Calm 0.00"
9:35 PM 73° 70° 75°89
%
10
mi
1017.6
mb
Calm 0.00"
9:15 PM 77° 70° 78°78
%
8
mi
1017.3
mb
E
90°
3
mph
0.00"
8:55 PM 77° 72° 78°83
%
9
mi
1017.3
mb
Calm 0.00"
8:35 PM 79° 72° 82°79
%
10
mi
1016.9
mb
E
90°
3
mph
0.00"
8:15 PM 81° 72° 85°74
%
10
mi
1016.9
mb
ESE
110°
5
mph
0.00"
7:55 PM 84° 72° 90°66
%
9
mi
1017.3
mb
Calm 0.00"
7:35 PM 84° 68° 87°58
%
10
mi
1017.3
mb
Calm 0.00"
7:15 PM 84° 68° 87°58
%
10
mi
1017.3
mb
Calm 0.00"
6:55 PM 84° 68° 87°58
%
10
mi
1017.3
mb
ESE
110°
5
mph
0.00"
6:35 PM 86° 66° 88°52
%
10
mi
1017.3
mb
E
90°
5
mph
0.00"
6:15 PM 86° 64° 88°49
%
10
mi
1017.3
mb
ENE
70°
6
mph
0.00"
5:55 PM 86° 64° 88°49
%
10
mi
1017.3
mb
E
80°
6
mph
0.00"
5:35 PM 88° 66° 90°49
%
1017.6
mb
ESE
110°
7
mph
0.00"
5:15 PM 88° 66° 90°49
%
10
mi
1017.6
mb
E
90°
7
mph
0.00"
4:55 PM 88° 66° 90°49
%
10
mi
1017.6
mb
E
100°
8
mph
0.00"
4:35 PM 86° 66° 88°52
%
10
mi
1017.6
mb
ESE
120°
7
mph
0.00"
4:15 PM 86° 64° 88°49
%
10
mi
1018.0
mb
ENE
70°
8
mph
0.00"
3:55 PM 86° 64° 88°49
%
10
mi
1018.0
mb
E
100°
8
mph
0.00"
3:35 PM 88° 63° 88°43
%
10
mi
1018.0
mb
Variable 3
mph
0.00"
3:15 PM 86° 64° 88°49
%
10
mi
1018.3
mb
ENE
60°
7
mph
0.00"
2:55 PM 88° 64° 89°46
%
10
mi
1018.3
mb
E
80°
5
mph
0.00"
2:35 PM 86° 64° 88°49
%
10
mi
1018.3
mb
5,500
ft
Calm 0.00"
2:15 PM 86° 66° 88°52
%
10
mi
1018.3
mb
E
90°
6
mph
0.00"